Estación Meteorológica Peña el Pijo (Robertgarden) [ 09/30/20 01:32:08 CEST ]

Fecha Hora Presion(HPa) Temp (°C) Humedad % Rocio (°C) Viento ( m/s) Direccion Lluvia 1Hora(mm) Lluvia 24H(mm) LLuvia Total(mm)
2020-May-16 01:09:17 1005.400 - - - - W     39.88
2020-May-16 02:09:27 1005.200 - - - - W     39.88
2020-May-16 03:09:11 1004.800 - - - - W     39.88
2020-May-16 04:09:26 1004.600 - - - - W     39.88
2020-May-16 05:09:26 1004.700 - - - - W     39.88
2020-May-16 06:09:14 1004.400 - - - - W     39.88
2020-May-16 07:09:45 1004.900 - - - - W     39.88
2020-May-16 08:10:00 1005.600 - - - - W     39.88
2020-May-16 09:09:09 1006.100 - - - - W     39.88
2020-May-16 10:09:29 1006.300 - - - - W     39.88
2020-May-16 11:09:19 1006.700 - - - - W     39.88
2020-May-16 12:09:30 1007.000 - - - - W     39.88
2020-May-16 13:09:19 1006.800 - - - - W     39.88
2020-May-16 14:09:27 1006.400 - - - - W     39.88
2020-May-16 15:09:21 1006.200 - - - - W     39.88
2020-May-16 16:09:37 1006.400 - - - - W     39.88
2020-May-16 17:09:02 1006.900 - - - - W     39.88
2020-May-16 18:09:11 1007.000 - - - - W     39.88
2020-May-16 19:09:27 1007.600 - - - - W     39.88
2020-May-16 20:09:05 1007.900 - - - - W     39.88
2020-May-16 21:09:05 1008.700 - - - - W     39.88
2020-May-16 22:08:58 1009.100 - - - - W     39.88
2020-May-16 23:09:11 1009.900 - - - - W     39.88

Temperatura Máxima:    Temperatura Mínima:
Presión Máxima:1009.900 Hpa    Presión Mínima:1004.400 Hpa


Volver